Location: ??????
(36.0418°N, 43.6351°E)
Time: 10:20:08
(UTC+00:00)

Cosmos 883 Rocket - Visible Passes

Search period start: 18 June 2021 00:00
Search period end: 28 June 2021 00:00
Orbit: 950 x 995 km, 83.0° (Epoch: 17 June)

Date Brightness Start Highest point End Pass type
(mag) Time Alt. Az. Time Alt. Az. Time Alt. Az.
18 Jun 5.0 00:18:34 10° N 00:24:39 61° E 00:30:39 10° SSE visible
18 Jun 7.0 23:00:13 10° NE 23:03:17 14° ENE 23:06:20 10° E visible
19 Jun 4.4 00:43:06 10° N 00:49:13 73° W 00:55:17 10° S visible
19 Jun 6.3 23:23:11 10° NNE 23:28:16 26° ENE 23:33:17 10° SE visible
20 Jun 5.0 01:08:01 10° NNW 01:13:37 38° W 01:19:11 10° SSW visible
20 Jun 5.3 23:47:08 10° N 23:53:03 49° E 23:58:56 10° SSE visible
21 Jun 7.1 22:30:06 10° NE 22:31:32 11° ENE 22:32:58 10° E visible
22 Jun 4.4 00:11:31 10° N 00:17:40 90° W 00:23:47 10° S visible
22 Jun 6.5 22:52:01 10° NNE 22:56:36 21° ENE 23:01:07 10° ESE visible
23 Jun 4.7 00:36:17 10° NNW 00:42:08 48° W 00:47:57 10° SSW visible
23 Jun 5.6 23:15:44 10° N 23:21:26 39° ENE 23:27:06 10° SSE visible
24 Jun 5.5 01:01:34 10° NNW 01:06:27 26° W 01:11:19 10° SW visible
24 Jun 4.6 23:39:58 10° N 23:46:07 74° E 23:51:21 15° SSE visible
25 Jun 6.7 22:21:00 10° NNE 22:24:53 17° ENE 22:28:45 10° ESE visible
26 Jun 4.5 00:04:37 10° NNW 00:10:38 60° W 00:15:05 19° SSW visible
26 Jun 5.9 22:44:24 10° NNE 22:49:48 32° ENE 22:54:19 14° SE visible
27 Jun 5.3 00:29:41 10° NNW 00:34:59 32° W 00:38:52 16° SW visible
27 Jun 4.9 23:08:29 10° N 23:14:32 59° E 23:18:10 25° SSE visible
